| time (UTC) | temp F | wind direction | speed MPH | gust MPH | rain 1hr in | rain 24hr in | rain mn in | humidity % | barometer mb |
| 20260506100034 | 57 | 171 | 1.0 | 4.0 | 0.00 | 0.00 | 0.00 | 57 | 1010.9 |
| 20260506094540 | 57 | 113 | 0.0 | 4.0 | 0.00 | 0.00 | 0.00 | 57 | 1010.8 |
| 20260506093033 | 57 | 154 | 1.0 | 3.0 | 0.00 | 0.00 | 0.00 | 57 | 1010.6 |
| 20260506091532 | 58 | 139 | 1.0 | 5.0 | 0.00 | 0.00 | 0.00 | 57 | 1010.5 |
| 20260506090033 | 58 | 115 | 1.0 | 4.0 | 0.00 | 0.00 | 0.00 | 57 | 1010.5 |
| 20260506084541 | 58 | 198 | 0.0 | 4.0 | 0.00 | 0.00 | 0.00 | 58 | 1010.3 |
| 20260506083037 | 59 | 0 | 0.0 | 4.0 | 0.00 | 0.00 | 0.00 | 58 | 1010.0 |
| 20260506081534 | 59 | 0 | 0.0 | 3.0 | 0.00 | 0.00 | 0.00 | 59 | 1010.0 |
| 20260506073037 | 59 | 127 | 0.0 | 3.0 | 0.00 | 0.00 | 0.00 | 58 | 1009.4 |
| 20260506071537 | 60 | 153 | 0.0 | 2.0 | 0.00 | 0.00 | 0.00 | 58 | 1009.7 |
| 20260506061538 | 60 | 162 | 0.0 | 2.0 | 0.00 | 0.00 | 0.00 | 59 | 1009.6 |
| 20260506044534 | 63 | 0 | 0.0 | 4.0 | 0.00 | 0.00 | 0.00 | 60 | 1009.6 |
| 20260506043038 | 63 | 176 | 0.0 | 4.0 | 0.00 | 0.00 | 0.00 | 59 | 1009.7 |
| 20260506041536 | 64 | 158 | 1.0 | 5.0 | 0.00 | 0.00 | 0.00 | 59 | 1009.7 |
| 20260506040039 | 64 | 0 | 1.0 | 4.0 | 0.00 | 0.00 | 0.00 | 58 | 1009.5 |
| 20260506034534 | 65 | 140 | 0.0 | 4.0 | 0.00 | 0.00 | 0.00 | 59 | 1008.9 |
| 20260506033035 | 65 | 119 | 0.0 | 5.0 | 0.00 | 0.00 | 0.00 | 57 | 1008.4 |
| 20260506031538 | 66 | 183 | 0.0 | 3.0 | 0.00 | 0.00 | 0.00 | 57 | 1008.5 |
| 20260506030035 | 67 | 175 | 1.0 | 5.0 | 0.00 | 0.00 | 0.00 | 56 | 1008.1 |
| 20260506024536 | 68 | 134 | 0.0 | 3.0 | 0.00 | 0.00 | 0.00 | 56 | 1007.9 |
| 20260506023046 | 68 | 148 | 0.0 | 2.0 | 0.00 | 0.00 | 0.00 | 56 | 1007.6 |
| 20260506021536 | 68 | 0 | 0.0 | 2.0 | 0.00 | 0.00 | 0.00 | 55 | 1007.1 |
| 20260506020034 | 68 | 0 | 0.0 | 2.0 | 0.00 | 0.00 | 0.00 | 54 | 1007.2 |
| 20260506014533 | 69 | 0 | 0.0 | 2.0 | 0.00 | 0.00 | 0.00 | 53 | 1006.4 |
| 20260506013037 | 70 | 0 | 0.0 | 5.0 | 0.00 | 0.00 | 0.00 | 53 | 1006.3 |
| 20260506011535 | 71 | 0 | 0.0 | 2.0 | 0.00 | 0.00 | 0.00 | 53 | 1006.2 |
| 20260506010047 | 71 | 161 | 0.0 | 7.0 | 0.00 | 0.00 | 0.00 | 52 | 1006.0 |
| 20260506004543 | 72 | 0 | 0.0 | 3.0 | 0.00 | 0.00 | 0.00 | 52 | 1005.5 |
| 20260506003038 | 73 | 109 | 1.0 | 4.0 | 0.00 | 0.00 | 0.00 | 51 | 1005.1 |
| 20260506001544 | 74 | 0 | 1.0 | 4.0 | 0.00 | 0.00 | 0.00 | 50 | 1004.9 |
| 20260506000034 | 76 | 138 | 1.0 | 4.0 | 0.00 | 0.00 | 0.00 | 49 | 1004.9 |
| 20260505234556 | 77 | 85 | 1.0 | 3.0 | 0.00 | 0.00 | 0.00 | 47 | 1004.7 |
| 20260505233039 | 79 | 118 | 0.0 | 5.0 | 0.00 | 0.00 | 0.00 | 46 | 1004.6 |
| 20260505231534 | 80 | 136 | 1.0 | 5.0 | 0.00 | 0.00 | 0.00 | 45 | 1004.5 |
| 20260505230034 | 82 | 122 | 0.0 | 4.0 | 0.00 | 0.00 | 0.00 | 44 | 1004.4 |
| 20260505224539 | 83 | 158 | 0.0 | 2.0 | 0.00 | 0.00 | 0.00 | 42 | 1003.9 |
| 20260505223040 | 85 | 0 | 0.0 | 3.0 | 0.00 | 0.00 | 0.00 | 39 | 1003.9 |
| 20260505221532 | 86 | 0 | 0.0 | 3.0 | 0.00 | 0.00 | 0.00 | 37 | 1003.6 |
| 20260505220036 | 88 | 0 | 0.0 | 3.0 | 0.00 | 0.00 | 0.00 | 35 | 1003.3 |
| 20260505214557 | 90 | 0 | 0.0 | 3.0 | 0.00 | 0.00 | 0.00 | 33 | 1003.6 |
| 20260505213036 | 94 | 126 | 0.0 | 2.0 | 0.00 | 0.00 | 0.00 | 33 | 1003.4 |
| 20260505211535 | 94 | 122 | 0.0 | 3.0 | 0.00 | 0.00 | 0.00 | 30 | 1003.4 |
| 20260505210034 | 93 | 316 | 0.0 | 3.0 | 0.00 | 0.00 | 0.00 | 34 | 1003.5 |
| 20260505204531 | 93 | 125 | 1.0 | 3.0 | 0.00 | 0.00 | 0.00 | 32 | 1003.5 |
| 20260505203040 | 92 | 197 | 1.0 | 4.0 | 0.00 | 0.00 | 0.00 | 34 | 1003.7 |
| 20260505201537 | 92 | 112 | 1.0 | 5.0 | 0.00 | 0.00 | 0.00 | 37 | 1003.9 |
| 20260505200034 | 91 | 95 | 1.0 | 4.0 | 0.00 | 0.00 | 0.00 | 37 | 1003.9 |
| 20260505194544 | 90 | 124 | 0.0 | 4.0 | 0.00 | 0.00 | 0.00 | 40 | 1004.0 |
| 20260505193034 | 89 | 119 | 2.0 | 9.0 | 0.00 | 0.00 | 0.00 | 41 | 1004.2 |
| 20260505191538 | 88 | 98 | 1.0 | 5.0 | 0.00 | 0.00 | 0.00 | 45 | 1004.0 |
| 20260505190031 | 86 | 99 | 2.0 | 6.0 | 0.00 | 0.00 | 0.00 | 45 | 1004.2 |
| 20260505184538 | 85 | 105 | 1.0 | 6.0 | 0.00 | 0.00 | 0.00 | 48 | 1004.3 |
| 20260505183038 | 84 | 110 | 1.0 | 4.0 | 0.00 | 0.00 | 0.00 | 49 | 1004.4 |
| 20260505181537 | 83 | 8 | 2.0 | 11.0 | 0.00 | 0.00 | 0.00 | 49 | 1004.3 |
| 20260505180057 | 84 | 114 | 1.0 | 5.0 | 0.00 | 0.00 | 0.00 | 49 | 1004.5 |
| 20260505174556 | 83 | 19 | 2.0 | 6.0 | 0.00 | 0.00 | 0.00 | 50 | 1004.5 |
| 20260505173037 | 82 | 76 | 1.0 | 7.0 | 0.00 | 0.00 | 0.00 | 51 | 1004.3 |
| 20260505171537 | 82 | 72 | 3.0 | 11.0 | 0.00 | 0.00 | 0.00 | 50 | 1004.4 |
| 20260505170037 | 82 | 49 | 2.0 | 5.0 | 0.00 | 0.00 | 0.00 | 52 | 1004.5 |
| 20260505164535 | 80 | 31 | 1.0 | 8.0 | 0.00 | 0.00 | 0.00 | 54 | 1004.5 |
| 20260505163035 | 80 | 354 | 3.0 | 11.0 | 0.00 | 0.00 | 0.00 | 54 | 1004.4 |
| 20260505161537 | 79 | 120 | 3.0 | 9.0 | 0.00 | 0.00 | 0.00 | 54 | 1004.3 |
| 20260505153036 | 77 | 121 | 2.0 | 12.0 | 0.00 | 0.00 | 0.00 | 58 | 1004.2 |
| 20260505151535 | 77 | 21 | 2.0 | 7.0 | 0.00 | 0.00 | 0.00 | 58 | 1004.0 |
| 20260505124538 | 70 | 48 | 0.0 | 4.0 | 0.00 | 0.00 | 0.00 | 67 | 1003.7 |
| 20260505123037 | 70 | 115 | 0.0 | 4.0 | 0.00 | 0.00 | 0.00 | 68 | 1003.5 |
| 20260505121535 | 70 | 107 | 0.0 | 11.0 | 0.00 | 0.00 | 0.00 | 68 | 1003.4 |
| 20260505120036 | 70 | 0 | 0.0 | 6.0 | 0.00 | 0.00 | 0.00 | 68 | 1003.4 |
| 20260505114537 | 70 | 139 | 0.0 | 5.0 | 0.00 | 0.00 | 0.00 | 67 | 1003.2 |
| 20260505113036 | 70 | 0 | 1.0 | 5.0 | 0.00 | 0.00 | 0.00 | 67 | 1003.0 |
| 20260505111537 | 70 | 113 | 0.0 | 5.0 | 0.00 | 0.00 | 0.00 | 67 | 1003.0 |
| 20260505101535 | 70 | 24 | 1.0 | 11.0 | 0.00 | 0.00 | 0.00 | 66 | 1002.9 |